Погода в Губдене

Россия / Республика Дагестан     42°33′53″N   47°33′53″E
темп.,
°C
ветер,
м/с
пор.,
м/с
влажн.,
%
обл.,
%
осадки,
мм/ч
давл.,
гПа
погр.,
м
19 января, вт
вт1900:00−4ссв2394100 0.9 1015220
03:00−5ссв1195100 1.4 1016106
06:00−5всв1195100 0.1 1018112
09:00−6всв2291100 0.8 1020192
12:00−5всв3389100 0.4 1020352
15:00−6св3390100 0.9 1019307
18:00−7зсз0189100 0.4 1021155
21:00−6ю1186100 0.5 1021123
20 января, ср
ср2000:00−7вюв229392 0.0 102273
03:00−8вюв229894 0.1 1021136
06:00−8вюв1296100 0.3 1021159
09:00−7св1192100 1.0 1022179
12:00−5св3393100 1.5 1022419
15:00−6св3395100 3.4 1021401
18:00−7св2397100 2.9 1024258
21:00−9зсз1196100 3.9 102537
21 января, чт
чт2100:00−9з2294100 0.5 102659
03:00−10зсз1193100 0.8 102731
06:00−12з228779 0.0 102922
09:00−9з018461 0.0 103090
12:00−7св218861 0.1 1031343
15:00−7всв219381 0.3 1030253
18:00−10ю1196100 0.1 103329
21:00−10зюз227467 0.1 103421
22 января, пт
пт2200:00−9юз44590 0.0 103430
03:00−9юз44540 0.0 103431
06:00−8юз44480 0.0 103327
09:00−5юз33540 0.0 103341
12:000ю11590 0.0 1031164
15:00−1юв11690 0.0 102943
18:00−4юз22450 0.0 103021
21:00−3юз33390 0.0 103021
23 января, сб
сб2300:00−3юз33410 0.0 103021
03:00−3юз33400 0.0 102821
06:00−4ююз23360 0.0 102821
09:00−1ю22508 0.0 102824
12:00+1юв127451 0.0 102582
15:00+1сз126326 0.0 102431
18:00−2з33520 0.0 102422
21:00−2зюз33490 0.0 102421